Pine Bluff, AR

10:47 PM CST on November 19, 2017 (GMT -0600)
Grider

Weather History for KPBF - May, 2013

Change the Weather History Date:

Friday, May 10, 2013

  Actual Average Record
Temperature  
Mean Temperature 72 °F 70 °F  
Max Temperature 81 °F 80 °F 93 °F (1973)
Min Temperature 62 °F 60 °F 41 °F (1923)
Degree Days  
Heating Degree Days 0 1  
Month to date heating degree days 56 11  
Since 1 July heating degree days 2952 2875  
Cooling Degree Days 7 6  
Month to date cooling degree days 17 47  
Year to date cooling degree days 80 134  
Growing Degree Days 20 (Base 50)    
Moisture  
Dew Point 64 °F    
Average Humidity 81    
Maximum Humidity 100    
Minimum Humidity 62    
Precipitation  
Precipitation 0.22 in 0.17 in 2.86 in (2006)
Month to date precipitation 0.66 1.75  
Year to date precipitation 20.93 19.90  
Snow  
Snow 0.00 in 0.00 in - ()
Month to date snowfall 0.0 0.0  
Since 1 July snowfall 2.1 3.1  
Snow Depth 0.00 in    
Sea Level Pressure  
Sea Level Pressure 29.92 in    
Wind  
Wind Speed 3 mph (West)    
Max Wind Speed 31 mph    
Max Gust Speed 39 mph    
Visibility 6 miles    
Events Fog , Rain , Thunderstorm    
T = Trace of Precipitation, MM = Missing Value Source: NWS Daily Summary

Daily Weather History Graph

Daily Weather History Graph

Search for Another Location

Airport or City:

Trip Planner

Search our weather history database for the weather conditions in past years. The results will help you decide how hot, cold, wet, or windy it might be!

Date:

Astronomy

May. 10, 2013 Rise Set
Actual Time 6:09 AM CDT 7:59 PM CDT
Civil Twilight 5:42 AM CDT 8:26 PM CDT
Nautical Twilight 5:09 AM CDT 8:59 PM CDT
Astronomical Twilight 4:34 AM CDT 9:34 PM CDT
Moon 6:34 AM CDT (5/10) 8:47 PM CDT (5/10)
Length of Visible Light 14h 44m
Length of Day
13h 49m
New Moon, 0% of the Moon is Illuminated
May 10
New Moon
May 17
First Quarter
May 24
Full
May 31
Last Quarter
Jun 8
New

Hourly Weather History & Observations

Time (CDT) Temp. Dew Point Humidity Pressure Visibility Wind Dir Wind Speed Gust Speed Precip Events Conditions
12:23 AM 64.4 °F 62.6 °F 94% 29.95 in 5.0 mi ESE 4.6 mph - 0.01 in Rain , Thunderstorm Light Rain
12:53 AM 64.4 °F 64.4 °F 100% 29.95 in 10.0 mi Calm Calm - N/A Rain Light Rain
1:22 AM 64.4 °F 62.6 °F 94% 29.94 in 10.0 mi Calm Calm - 0.00 in   Overcast
1:36 AM 64.4 °F 62.6 °F 94% 29.94 in 9.0 mi Calm Calm - N/A   Overcast
1:53 AM 64.0 °F 63.0 °F 96% 29.93 in 10.0 mi Calm Calm - 0.01 in   Mostly Cloudy
2:53 AM 63.0 °F 62.1 °F 97% 29.91 in 6.0 mi NNW 3.5 mph - 0.02 in   Clear
3:02 AM 62.6 °F 62.6 °F 100% 29.91 in 6.0 mi North 3.5 mph - 0.01 in   Scattered Clouds
3:53 AM 64.0 °F 63.0 °F 96% 29.91 in 8.0 mi Calm Calm - 0.02 in   Overcast
4:43 AM 62.6 °F 62.6 °F 100% 29.89 in 2.5 mi Calm Calm - 0.01 in   Partly Cloudy
4:53 AM 63.0 °F 63.0 °F 100% 29.88 in 1.8 mi Calm Calm - 0.01 in   Partly Cloudy
5:21 AM 62.6 °F 62.6 °F 100% 29.89 in 0.8 mi Calm Calm - 0.01 in   Mostly Cloudy
5:36 AM 62.6 °F 62.6 °F 100% 29.89 in 2.0 mi Calm Calm - 0.02 in   Overcast
5:45 AM 62.6 °F 62.6 °F 100% 29.89 in 3.0 mi Calm Calm - 0.02 in   Overcast
5:53 AM 63.0 °F 62.1 °F 97% 29.89 in 3.0 mi Calm Calm - 0.02 in   Overcast
6:02 AM 62.6 °F 62.6 °F 100% 29.90 in 2.5 mi Calm Calm - N/A   Overcast
6:12 AM 62.6 °F 62.6 °F 100% 29.91 in 3.0 mi NNW 4.6 mph - N/A   Overcast
6:20 AM 64.4 °F 62.6 °F 94% 29.91 in 3.0 mi North 3.5 mph - N/A   Overcast
6:36 AM 64.4 °F 64.4 °F 100% 29.92 in 2.0 mi Calm Calm - 0.01 in   Overcast
6:53 AM 64.4 °F 64.4 °F 100% 29.92 in 3.0 mi Calm Calm - N/A   Overcast
7:53 AM 66.0 °F 64.9 °F 96% 29.94 in 5.0 mi Calm Calm - 0.01 in   Overcast
8:22 AM 66.2 °F 64.4 °F 94% 29.95 in 5.0 mi WNW 3.5 mph - 0.01 in   Overcast
8:36 AM 66.2 °F 64.4 °F 94% 29.95 in 6.0 mi WNW 3.5 mph - 0.01 in   Overcast
8:53 AM 66.9 °F 64.9 °F 93% 29.95 in 8.0 mi West 3.5 mph - 0.01 in   Mostly Cloudy
9:21 AM 69.8 °F 66.2 °F 88% 29.95 in 10.0 mi WSW 6.9 mph - 0.01 in   Mostly Cloudy
9:53 AM 70.0 °F 66.0 °F 87% 29.95 in 10.0 mi WSW 8.1 mph - 0.01 in   Mostly Cloudy
10:53 AM 73.0 °F 68.0 °F 84% 29.94 in 10.0 mi SSW 8.1 mph - 0.01 in   Mostly Cloudy
11:53 AM 73.9 °F 66.9 °F 79% 29.95 in 10.0 mi SSW 5.8 mph - 0.01 in   Mostly Cloudy
12:53 PM 75.0 °F 66.9 °F 76% 29.94 in 10.0 mi SW 5.8 mph - 0.01 in   Mostly Cloudy
1:53 PM 78.1 °F 66.9 °F 68% 29.91 in 10.0 mi South 6.9 mph - 0.01 in   Clear
2:53 PM 79.0 °F 64.9 °F 62% 29.89 in 10.0 mi SSW 3.5 mph - N/A   Mostly Cloudy
3:53 PM 79.0 °F 66.0 °F 64% 29.87 in 10.0 mi North 9.2 mph - 0.01 in   Mostly Cloudy
4:15 PM 77.0 °F 64.4 °F 65% 29.87 in 10.0 mi North 8.1 mph - N/A Thunderstorm Overcast
4:36 PM 69.8 °F 64.4 °F 83% 29.91 in 1.2 mi NW 31.1 mph 39.1 mph 0.01 in Rain , Thunderstorm Heavy Thunderstorms and Rain
4:41 PM 68.0 °F 64.4 °F 88% 29.91 in 0.5 mi WSW 18.4 mph 39.1 mph 0.01 in Fog , Rain , Thunderstorm Heavy Thunderstorms and Rain
4:49 PM 66.2 °F 64.4 °F 94% 29.89 in 1.0 mi Variable 5.8 mph 32.2 mph 0.01 in Rain , Thunderstorm Heavy Thunderstorms and Rain
4:50 PM 68.0 °F 64.9 °F 90% 29.88 in 1.0 mi North 6.9 mph 32.2 mph 0.01 in Rain , Thunderstorm Heavy Thunderstorms and Rain
4:55 PM 69.8 °F 66.2 °F 88% 29.89 in 3.0 mi North 6.9 mph - 0.00 in Rain , Thunderstorm Light Thunderstorms and Rain
5:20 PM 69.8 °F 64.4 °F 83% 29.90 in 10.0 mi SW 5.8 mph - 0.00 in   Overcast
5:53 PM 69.1 °F 64.9 °F 87% 29.91 in 10.0 mi SE 5.8 mph - 0.00 in   Mostly Cloudy
6:53 PM 68.0 °F 64.9 °F 90% 29.89 in 10.0 mi Calm Calm - 0.01 in   Mostly Cloudy
7:53 PM 68.0 °F 64.0 °F 87% 29.89 in 10.0 mi Calm Calm - N/A   Clear
8:53 PM 66.9 °F 64.9 °F 93% 29.92 in 10.0 mi West 4.6 mph - 0.01 in   Clear
9:53 PM 66.0 °F 64.0 °F 93% 29.95 in 10.0 mi Calm Calm - N/A   Clear
10:53 PM 66.0 °F 64.0 °F 93% 29.98 in 10.0 mi Calm Calm - 0.01 in   Clear
11:53 PM 64.0 °F 63.0 °F 96% 29.99 in 9.0 mi SE 4.6 mph - 0.01 in   Partly Cloudy